Погода в Кытлыме

Россия / Свердловская область     59°30′00″N   59°12′07″E
темп.,
°C
ветер,
м/с
пор.,
м/с
влажн.,
%
обл.,
%
осадки,
мм/ч
давл.,
гПа
погр.,
м
12 апреля, пн
пн1223:00+1зсз3390100 0.0 1030132
02:00−1з2296100 0.0 103242
05:000зюз249898 0.0 1032189
08:00+1з2892100 0.0 1034880
11:00+4зсз39643 0.0 10351088
14:00+5зсз37533 0.0 10361296
17:00+5з26560 0.0 10381178
20:00−1зсз22911 0.0 104022
13 апреля, вт
вт1323:00−2з22922 0.0 104117
02:00−2з22915 0.0 104123
05:00−2з22877 0.0 104135
08:00+2з237422 0.0 104096
11:00+6з24545 0.0 1038499
14:00+8з244799 0.0 1036668
17:00+7зюз2464100 0.0 1035529
20:00+3з3384100 0.0 103442
14 апреля, ср
ср1423:00+2з3381100 0.0 103252
02:00+2з3682100 0.0 1031104
05:00+2з3591100 0.0 103099
08:00+4з3594100 0.0 1029179
11:00+8з3591100 0.0 1028300
14:00+9з3885100 0.0 1027616
17:00+11з3974100 0.0 10251130
20:00+6зюз239076 0.0 102542
15 апреля, чт
чт1523:00+5зюз3491100 0.0 102464
02:00+4з3491100 0.0 102380
05:00+3з3591100 0.0 102299
08:00+5з3984100 0.0 1021336
11:00+10з41261100 0.0 1019939
14:00+12з51149100 0.0 10171231
17:00+12зюз4949100 0.0 10171256
20:00+7зюз2272100 0.0 101727
16 апреля, пт
пт1623:00+6з2280100 0.0 101613
02:00+3в2294100 0.0 101650
05:00+2всв2296100 0.0 1016321
08:00+1всв2396100 0.1 1016542
11:000св3597100 0.7 1016424
14:000св3798100 1.8 1017386
17:00−1св51195100 5.9 1018921
20:00−4св51395100 4.4 1020987